Location: Lewisville
(33.0462°N, 96.9942°W)
Time: 11:00:40
(UTC-06:00)

Hubble Space Telescope - Pass Details

Date: 15 December 2021
Orbit: 534 x 538 km, 28.5° (Epoch: 19 January)

Event Time Altitude Azimuth Distance (km) Brightness Sun altitude
Rises 18:44:19 0° 233° (SW) 2,668 5.7 -16.6°
Reaches altitude 10° 18:46:50 10° 221° (SW) 1,779 4.3 -17.1°
Maximum altitude 18:50:16 26° 164° (SSE) 1,083 2.3 -17.8°
Enters shadow 18:51:38 21° 133° (SE) 1,222 2.3 -18.1°
